Location: Asheville, NC
(35.6000°N, 82.5500°W)
Time: 17:28:57

Vanguard 1 Rocket - Pass Details

Date: 08 March 2018
Orbit: 655 x 4222 km, 34.3° (Epoch: 19 March)

Event Time Altitude Azimuth Distance (km) Brightness Sun altitude
Rises 03:23:53 0° 285° (WNW) 7,643 - -41.6°
Reaches altitude 10° 03:29:43 10° 277° (W) 6,974 - -40.5°
Maximum altitude 03:49:13 31° 226° (SW) 5,791 - -37.0°
Exits shadow 03:56:18 27° 203° (SSW) 5,881 11.1 -35.6°
Drops below altitude 10° 04:08:14 10° 173° (S) 6,664 11.6 -33.4°
Sets 04:13:50 0° 163° (SSE) 7,258 12.0 -32.3°
